When you browse on this site, cookies collect data to enhance your experience and personalize the content and advertising you see.
Visit our Privacy Policy to learn more. By continuing to use the site, you agree to this use of cookies and data.
  • în România
  • Lista ţărilor
  • Pe 7 zile
  • Temperatura apei
  • Meteo pe hartă
  • Widget-uri
  • user-avatar
    Intrare

    Meteo pe oră la Santiago del Estero

    Astăzi, 2 Iunie, Marţi

    Timp Temperatura Precipitaţii Vânt Presiune Umiditate
    00:00 +8°C° 0 mm 2 m/s 749 mmHg 51%
    01:00 +7°C° 0 mm 2 m/s 748 mmHg 53%
    02:00 +7°C° 0 mm 2 m/s 748 mmHg 53%
    03:00 +7°C° 0 mm 2 m/s 748 mmHg 55%
    04:00 +6°C° 0 mm 2 m/s 747 mmHg 57%
    05:00 +7°C° 0 mm 1 m/s 747 mmHg 60%
    06:00 +6°C° 0 mm 2 m/s 747 mmHg 58%
    07:00 +7°C° 0 mm 2 m/s 747 mmHg 57%
    08:00 +8°C° 0 mm 2 m/s 748 mmHg 57%
    09:00 +10°C° 0 mm 2 m/s 747 mmHg 50%
    10:00 +13°C° 0 mm 3 m/s 747 mmHg 44%
    11:00 +15°C° 0 mm 4 m/s 747 mmHg 37%
    12:00 +17°C° 0 mm 4 m/s 746 mmHg 35%
    13:00 +19°C° 0 mm 4 m/s 745 mmHg 34%
    14:00 +20°C° 0 mm 4 m/s 744 mmHg 32%
    15:00 +19°C° 0 mm 4 m/s 743 mmHg 35%
    16:00 +19°C° 0 mm 3 m/s 743 mmHg 38%
    17:00 +18°C° 0 mm 2 m/s 742 mmHg 40%
    18:00 +17°C° 0 mm 3 m/s 743 mmHg 44%
    19:00 +14°C° 0 mm 3 m/s 743 mmHg 47%
    20:00 +13°C° 0 mm 3 m/s 743 mmHg 50%
    21:00 +12°C° 0 mm 3 m/s 743 mmHg 53%
    22:00 +11°C° 0 mm 3 m/s 743 mmHg 56%
    23:00 +11°C° 0 mm 3 m/s 743 mmHg 59%

    Mâine, 3 Iunie, Miercuri

    Timp Temperatura Precipitaţii Vânt Presiune Umiditate
    00:00 +10°C° 0 mm 3 m/s 743 mmHg 61%
    01:00 +10°C° 0 mm 3 m/s 743 mmHg 63%
    02:00 +9°C° 0 mm 3 m/s 743 mmHg 64%
    03:00 +9°C° 0 mm 3 m/s 742 mmHg 66%
    04:00 +9°C° 0 mm 3 m/s 742 mmHg 67%
    05:00 +8°C° 0 mm 3 m/s 742 mmHg 69%
    06:00 +9°C° 0 mm 3 m/s 742 mmHg 68%
    07:00 +8°C° 0 mm 4 m/s 742 mmHg 67%
    08:00 +10°C° 0 mm 4 m/s 743 mmHg 66%
    09:00 +12°C° 0 mm 5 m/s 743 mmHg 60%
    10:00 +15°C° 0 mm 5 m/s 743 mmHg 53%
    11:00 +17°C° 0 mm 6 m/s 743 mmHg 47%
    12:00 +19°C° 0 mm 5 m/s 743 mmHg 45%
    13:00 +20°C° 0 mm 5 m/s 742 mmHg 44%
    14:00 +21°C° 0 mm 5 m/s 742 mmHg 42%
    15:00 +20°C° 0 mm 4 m/s 743 mmHg 46%
    16:00 +19°C° 0 mm 3 m/s 743 mmHg 49%
    17:00 +18°C° 0 mm 2 m/s 743 mmHg 53%
    18:00 +18°C° 0 mm 2 m/s 744 mmHg 52%
    19:00 +18°C° 0 mm 3 m/s 745 mmHg 52%
    20:00 +17°C° 0 mm 4 m/s 746 mmHg 51%
    21:00 +15°C° 0.1 mm 4 m/s 747 mmHg 56%
    22:00 +16°C° 0.1 mm 3 m/s 748 mmHg 61%
    23:00 +14°C° 0.1 mm 3 m/s 748 mmHg 66%

    Poimâine, 4 Iunie, Joi

    Timp Temperatura Precipitaţii Vânt Presiune Umiditate
    00:00 +13°C° 0.2 mm 3 m/s 748 mmHg 72%
    01:00 +12°C° 0.2 mm 3 m/s 749 mmHg 77%
    02:00 +12°C° 0.2 mm 3 m/s 749 mmHg 82%
    03:00 +12°C° 0.2 mm 4 m/s 749 mmHg 84%
    04:00 +11°C° 0.2 mm 4 m/s 749 mmHg 86%
    05:00 +11°C° 0.2 mm 4 m/s 749 mmHg 88%
    06:00 +11°C° 0.2 mm 4 m/s 749 mmHg 89%
    07:00 +11°C° 0.2 mm 4 m/s 749 mmHg 90%
    08:00 +11°C° 0.2 mm 4 m/s 750 mmHg 90%
    09:00 +11°C° 0.2 mm 4 m/s 750 mmHg 90%
    10:00 +11°C° 0.2 mm 4 m/s 750 mmHg 89%
    11:00 +11°C° 0.2 mm 4 m/s 750 mmHg 88%
    12:00 +11°C° 0.2 mm 4 m/s 749 mmHg 87%
    13:00 +11°C° 0.2 mm 4 m/s 749 mmHg 87%
    14:00 +11°C° 0.2 mm 4 m/s 748 mmHg 86%
    15:00 +11°C° 0.3 mm 4 m/s 748 mmHg 86%
    16:00 +11°C° 0.3 mm 4 m/s 748 mmHg 87%
    17:00 +11°C° 0.3 mm 4 m/s 748 mmHg 87%
    18:00 +11°C° 0.7 mm 4 m/s 748 mmHg 88%
    19:00 +11°C° 0.7 mm 4 m/s 748 mmHg 89%
    20:00 +10°C° 0.7 mm 4 m/s 748 mmHg 91%
    21:00 +10°C° 0.6 mm 4 m/s 748 mmHg 90%
    22:00 +10°C° 0.6 mm 4 m/s 748 mmHg 89%
    23:00 +10°C° 0.6 mm 4 m/s 748 mmHg 89%

    5 Iunie, Vineri

    Timp Temperatura Precipitaţii Vânt Presiune Umiditate
    00:00 +10°C° 0 mm 4 m/s 748 mmHg 89%
    01:00 +10°C° 0 mm 3 m/s 747 mmHg 89%
    02:00 +9°C° 0 mm 3 m/s 747 mmHg 89%
    03:00 +9°C° 0 mm 3 m/s 747 mmHg 89%
    04:00 +8°C° 0 mm 3 m/s 746 mmHg 89%
    05:00 +8°C° 0 mm 3 m/s 746 mmHg 90%
    06:00 +8°C° 0 mm 3 m/s 746 mmHg 88%
    07:00 +9°C° 0 mm 3 m/s 747 mmHg 86%
    08:00 +9°C° 0 mm 3 m/s 747 mmHg 84%
    09:00 +11°C° 0 mm 3 m/s 747 mmHg 74%
    10:00 +13°C° 0 mm 3 m/s 747 mmHg 65%
    11:00 +17°C° 0 mm 4 m/s 747 mmHg 56%
    12:00 +18°C° 0 mm 3 m/s 746 mmHg 51%
    13:00 +19°C° 0 mm 3 m/s 745 mmHg 45%
    14:00 +20°C° 0 mm 3 m/s 745 mmHg 39%
    15:00 +19°C° 0 mm 2 m/s 745 mmHg 43%
    16:00 +19°C° 0 mm 1 m/s 744 mmHg 46%
    17:00 +19°C° 0 mm 1 m/s 744 mmHg 50%
    18:00 +16°C° 0 mm 1 m/s 745 mmHg 52%
    19:00 +15°C° 0 mm 1 m/s 745 mmHg 54%
    20:00 +14°C° 0 mm 2 m/s 745 mmHg 56%
    21:00 +14°C° 0 mm 2 m/s 745 mmHg 56%
    22:00 +13°C° 0 mm 2 m/s 745 mmHg 57%
    23:00 +13°C° 0 mm 2 m/s 745 mmHg 58%

    6 Iunie, Sâmbătă

    Timp Temperatura Precipitaţii Vânt Presiune Umiditate
    00:00 +12°C° 0 mm 2 m/s 745 mmHg 61%
    01:00 +12°C° 0 mm 1 m/s 744 mmHg 65%
    02:00 +11°C° 0 mm 1 m/s 744 mmHg 69%
    03:00 +11°C° 0 mm 1 m/s 744 mmHg 70%
    04:00 +10°C° 0 mm 1 m/s 744 mmHg 72%
    05:00 +10°C° 0 mm 1 m/s 744 mmHg 73%
    06:00 +11°C° 0 mm 1 m/s 744 mmHg 71%
    07:00 +10°C° 0 mm 2 m/s 745 mmHg 69%
    08:00 +12°C° 0 mm 2 m/s 745 mmHg 68%
    09:00 +14°C° 0 mm 2 m/s 745 mmHg 61%
    10:00 +16°C° 0 mm 3 m/s 744 mmHg 55%
    11:00 +18°C° 0 mm 4 m/s 744 mmHg 49%
    12:00 +20°C° 0 mm 4 m/s 743 mmHg 45%
    13:00 +21°C° 0 mm 4 m/s 742 mmHg 41%
    14:00 +23°C° 0 mm 4 m/s 741 mmHg 37%
    15:00 +22°C° 0 mm 4 m/s 741 mmHg 39%
    16:00 +21°C° 0 mm 3 m/s 741 mmHg 41%
    17:00 +21°C° 0 mm 2 m/s 740 mmHg 43%
    18:00 +19°C° 0 mm 2 m/s 741 mmHg 45%
    19:00 +18°C° 0 mm 2 m/s 741 mmHg 47%
    20:00 +16°C° 0 mm 2 m/s 742 mmHg 49%
    21:00 +16°C° 0 mm 2 m/s 742 mmHg 50%
    22:00 +14°C° 0 mm 3 m/s 742 mmHg 51%
    23:00 +14°C° 0 mm 3 m/s 742 mmHg 52%

    7 Iunie, Duminică

    Timp Temperatura Precipitaţii Vânt Presiune Umiditate
    00:00 +13°C° 0 mm 3 m/s 742 mmHg 54%
    01:00 +13°C° 0 mm 3 m/s 742 mmHg 56%
    02:00 +12°C° 0 mm 3 m/s 742 mmHg 58%
    03:00 +12°C° 0 mm 3 m/s 743 mmHg 60%
    04:00 +11°C° 0 mm 3 m/s 743 mmHg 62%
    05:00 +11°C° 0 mm 3 m/s 743 mmHg 64%
    06:00 +12°C° 0 mm 2 m/s 744 mmHg 64%
    07:00 +12°C° 0 mm 2 m/s 745 mmHg 63%
    08:00 +13°C° 0 mm 2 m/s 745 mmHg 63%
    09:00 +14°C° 0 mm 3 m/s 745 mmHg 58%
    10:00 +17°C° 0 mm 3 m/s 746 mmHg 53%
    11:00 +20°C° 0 mm 3 m/s 746 mmHg 48%
    12:00 +21°C° 0 mm 4 m/s 745 mmHg 45%
    13:00 +22°C° 0 mm 4 m/s 744 mmHg 43%
    14:00 +25°C° 0 mm 4 m/s 743 mmHg 41%
    15:00 +24°C° 0 mm 3 m/s 743 mmHg 44%
    16:00 +22°C° 0 mm 3 m/s 743 mmHg 48%
    17:00 +23°C° 0 mm 2 m/s 743 mmHg 52%
    18:00 +21°C° 0 mm 2 m/s 743 mmHg 53%
    19:00 +20°C° 0 mm 2 m/s 744 mmHg 55%
    20:00 +19°C° 0 mm 3 m/s 744 mmHg 56%
    21:00 +18°C° 0 mm 3 m/s 744 mmHg 57%
    22:00 +18°C° 0 mm 3 m/s 744 mmHg 59%
    23:00 +17°C° 0 mm 3 m/s 744 mmHg 60%
    Arată mai mult